Regional Weather Roundup
Issued by NWS Sterling, VA

Home | Current Version | Previous Version | Graphics & Text | Print | Product List | Glossary On
Versions: 1 2 3 4 5 6 7 8 9 10 11 12 13 14 15 16 17 18 19 20 21 22 23 24 25 26 27 28 29 30 31 32 33 34 35 36 37 38 39 40 41 42 43 44 45 46 47 48 49 50
000
ASUS41 KLWX 161010
RWRLWX

REGIONAL WEATHER ROUNDUP
NATIONAL WEATHER SERVICE BALTIMORE MD/WASHINGTON DC
600 AM EDT TUE SEP 16 2014

Note: "FAIR" indicates few or no clouds below 12,000 feet
with no significant weather and/or obstructions to visibility.
 TC=TEMPERATURE CELSIUS

 * =Non NWS site. Station does not report precipitation (e.g. rain,
    snow, etc.), thunder, or fog.

DCZ001-MDZ009-015-VAZ040>042-051-053>054-161100-
WASHINGTON METRO

CITY           SKY/WX    TMP DP  RH WIND       PRES   REMARKS
WASHINGTON NAT PTCLDY    66  60  81 SW3       30.02R
DULLES         MOCLDY    55  55 100 CALM      30.01S FOG
ANDREWS AFB    PTCLDY    63  62  97 W6        30.01S
QUANTICO       CLEAR     64  60  87 CALM      30.02S
COLLEGE PARK*  CLEAR     61  61 100 CALM      30.01R
LEESBURG*      PTCLDY    59  59 100 CALM      30.02S
MANASSAS*      MOCLDY    57  57 100 CALM      30.02S VSB 1/2
GAITHERSBURG*  CLEAR     57  55  94 CALM      30.04F

$$

MDZ006>007-011-014-161100-
BALTIMORE METRO

CITY           SKY/WX    TMP DP  RH WIND       PRES   REMARKS
BWI AIRPORT    PTCLDY    58  56  93 W5        30.00R
MD SCIENCE CTR   N/A     63  59  87 MISG      30.00S
MARTIN STATE   PTCLDY    64  63  94 W3        30.01R
ANNAPOLIS      PTCLDY    64  61  90 W5        30.00R
FORT MEADE*    CLEAR     55  54  94 CALM      30.03R

$$

MDZ012-015-019>023-161100-
MARYLAND EASTERN SHORE

CITY           SKY/WX    TMP DP  RH WIND       PRES   REMARKS
OCEAN CITY     CLOUDY    68  63  84 SW3       30.01F
SALISBURY        N/A    N/A N/A N/A MISG        N/A
BAY BRIDGE AP*   N/A     66  63  88 SW8       29.99F
CAMBRIDGE*     CLOUDY    68  63  83 W3        29.99S
EASTON*        LGT RAIN  64  64 100 CALM      30.03S

$$

MDZ017>025-161100-
SOUTHERN MARYLAND

CITY           SKY/WX    TMP DP  RH WIND       PRES   REMARKS
PATUXENT RIVER CLOUDY    67  63  87 SW6       30.00S
ST INIGOES     CLOUDY    69  62  78 SW8       30.00S
LEONARDTOWN*   CLOUDY    66  61  82 SW6       30.02S

$$

MDZ003>005-161100-
NORTH CENTRAL MARYLAND

CITY           SKY/WX    TMP DP  RH WIND       PRES   REMARKS
FREDERICK*     CLEAR     55  55 100 CALM      30.04S
HAGERSTOWN APT CLOUDY    59  54  83 CALM      30.01S
WESTMINSTER*   PTCLDY    59  57  94 CALM      30.00F

$$

MDZ501>502-161100-
WESTERN MARYLAND

CITY           SKY/WX    TMP DP  RH WIND       PRES   REMARKS
OAKLAND*       CLOUDY    50 N/A N/A W8        30.07S FOG
CUMBERLAND*    MOCLDY    59  54  82 CALM      30.07S

$$

VAZ025>031-161100-
SHENANDOAH VALLEY

CITY           SKY/WX    TMP DP  RH WIND       PRES   REMARKS
WINCHESTER*    CLOUDY    59  55  88 CALM      30.02S
STAUNTON*      CLOUDY    60  58  92 CALM      30.05S FOG

$$

WVZ021-048>050-054>055-161100-
EASTERN WEST VIRGINIA PANHANDLE

CITY           SKY/WX    TMP DP  RH WIND       PRES   REMARKS
MARTINSBURG    CLOUDY    57  53  86 CALM      30.01F
PETERSBURG*    CLOUDY    59  57  94 CALM      30.05R

$$

VAZ036>039-050-161100-
CENTRAL FOOTHILLS

CITY           SKY/WX    TMP DP  RH WIND       PRES   REMARKS
CHARLOTTESVILL CLOUDY    63  62  97 CALM      30.02R FOG
ORANGE*        PTCLDY    61  59  94 CALM      30.03S FOG

$$

VAZ055>057-161100-
NORTH AND CENTRAL PIEDMONT

CITY           SKY/WX    TMP DP  RH WIND       PRES   REMARKS
FREDERICKSBRG* CLEAR     63  63 100 CALM      30.00F
STAFFORD*      PTCLDY    58  58 100 CALM      30.05S FOG

$$

NCZ024-NYZ072-PAZ021-071-VAZ022-071-161100-
OTHER REGIONAL OBSERVATIONS

CITY           SKY/WX    TMP DP  RH WIND       PRES   REMARKS
NEW YORK CITY  CLEAR     61  51  70 E3        30.02F
PHILADELPHIA   RAIN      61  57  87 SE3       29.99S FOG
PITTSBURGH     DRIZZLE   55  54  96 N8        30.08R
ROANOKE        CLOUDY    67  58  72 W12       30.07S
RICHMOND       CLOUDY    67  64  90 W7        30.02S
RALEIGH        CLOUDY    68  65  90 CALM      30.05S

$$

ANZ530>537-161100-
MARINE OBSERVATIONS

STATION/POSITION TIME  TEMP    WIND        PRES
                       AIR SEA DIR/SP/G
                 (UTC) (F)     (DEG/KT/KT) (MB)
THOMAS PT LIGHT  1000   66 74  270/ 11/ 13 1016.8S
BALT KEY BRIDGE  1000   64     250/  7/  9 1015.5F
COVE POINT       1000   68     260/ 10/ 14 1015.8S
LEWISETTA        1000   67 73  250/  7/  9 1015.9R
SOLOMONS ISLAND  1000      76                N/A
PINEY POINT      1000          270/ 10/ 12   N/A

$$



USA.gov is the U.S. government's official web portal to all federal, state and local government web resources and services.